Harrison, AR

8:43 AM CDT on April 24, 2018 (GMT -0500)
Boone County

Weather History for KHRO - February, 2011

Change the Weather History Date:

Thursday, February 17, 2011

  Actual Average Record
Temperature  
Mean Temperature 64 °F 41 °F  
Max Temperature 71 °F 51 °F 77 °F (1913)
Min Temperature 56 °F 31 °F -4 °F (1900)
Degree Days  
Heating Degree Days 1 24  
Month to date heating degree days 534 438  
Since 1 July heating degree days 2907 2924  
Cooling Degree Days 0 0  
Month to date cooling degree days 0 0  
Year to date cooling degree days 0 0  
Growing Degree Days 14 (Base 50)    
Moisture  
Dew Point 52 °F    
Average Humidity 68    
Maximum Humidity 78    
Minimum Humidity 57    
Precipitation  
Precipitation 0.00 in 0.10 in 2.37 in (1938)
Month to date precipitation 1.79 1.54  
Year to date precipitation 2.04 4.10  
Snow  
Snow 0.00 in 0.10 in 7.00 in (1967)
Month to date snowfall 16.6 2.1  
Since 1 July snowfall 19.4 8.1  
Snow Depth 0.00 in    
Sea Level Pressure  
Sea Level Pressure 29.85 in    
Wind  
Wind Speed 11 mph (SSW)    
Max Wind Speed 23 mph    
Max Gust Speed 36 mph    
Visibility 10 miles    
Events      
T = Trace of Precipitation, MM = Missing Value Source: NWS Daily Summary

Daily Weather History Graph

Daily Weather History Graph

Search for Another Location

Airport or City:

Astronomy

Feb. 17, 2011 Rise Set
Actual Time 6:58 AM CST 5:55 PM CST
Civil Twilight 6:31 AM CST 6:21 PM CST
Nautical Twilight 6:01 AM CST 6:51 PM CST
Astronomical Twilight 5:32 AM CST 7:21 PM CST
Moon 5:33 PM CST (2/17) 6:12 AM CST (2/17)
Length of Visible Light 11h 49m
Length of Day
10h 57m
Waxing Gibbous, 99% of the Moon is Illuminated
Feb 17
Waxing Gibbous
Feb 18
Full
Feb 24
Last Quarter
Mar 4
New
Mar 12
First Quarter

Hourly Weather History & Observations

Time (CST) Temp. Dew Point Humidity Pressure Visibility Wind Dir Wind Speed Gust Speed Precip Events Conditions
12:53 AM 60.1 °F 51.1 °F 72% 29.88 in 10.0 mi South 11.5 mph 20.7 mph N/A   Overcast
1:53 AM 59.0 °F 51.1 °F 75% 29.87 in 10.0 mi South 8.1 mph - N/A   Overcast
2:53 AM 59.0 °F 50.0 °F 72% 29.85 in 10.0 mi South 5.8 mph 16.1 mph N/A   Mostly Cloudy
3:01 AM 57.2 °F 50.0 °F 77% 29.86 in 10.0 mi South 6.9 mph - N/A   Partly Cloudy
3:53 AM 57.0 °F 50.0 °F 77% 29.83 in 10.0 mi South 5.8 mph - N/A   Partly Cloudy
4:53 AM 59.0 °F 51.1 °F 75% 29.83 in 10.0 mi South 9.2 mph 16.1 mph N/A   Scattered Clouds
5:25 AM 59.0 °F 51.8 °F 77% 29.85 in 10.0 mi South 10.4 mph 16.1 mph N/A   Mostly Cloudy
5:53 AM 60.1 °F 51.1 °F 72% 29.83 in 10.0 mi SSW 11.5 mph 23.0 mph N/A   Mostly Cloudy
6:26 AM 59.0 °F 51.8 °F 77% 29.84 in 10.0 mi South 13.8 mph 20.7 mph N/A   Scattered Clouds
6:53 AM 59.0 °F 51.1 °F 75% 29.83 in 9.0 mi SSW 10.4 mph 25.3 mph N/A   Clear
7:53 AM 62.1 °F 52.0 °F 70% 29.83 in 9.0 mi SSW 10.4 mph 25.3 mph N/A   Scattered Clouds
8:02 AM 62.6 °F 51.8 °F 68% 29.86 in 9.0 mi SSW 13.8 mph 19.6 mph N/A   Mostly Cloudy
8:53 AM 62.6 °F 53.6 °F 72% 29.87 in 9.0 mi SSW 10.4 mph 20.7 mph N/A   Overcast
9:53 AM 63.0 °F 53.1 °F 70% 29.85 in 10.0 mi SSW 15.0 mph 25.3 mph N/A   Overcast
10:48 AM 64.4 °F 53.6 °F 68% 29.88 in 10.0 mi SSW 19.6 mph 29.9 mph N/A   Scattered Clouds
10:53 AM 66.0 °F 53.1 °F 63% 29.85 in 10.0 mi SW 18.4 mph 29.9 mph N/A   Scattered Clouds
11:53 AM 68.0 °F 53.1 °F 59% 29.84 in 10.0 mi SSW 18.4 mph 33.4 mph N/A   Partly Cloudy
12:53 PM 70.0 °F 53.1 °F 55% 29.81 in 10.0 mi SSW 19.6 mph 32.2 mph N/A   Partly Cloudy
1:53 PM 70.0 °F 53.1 °F 55% 29.79 in 10.0 mi South 18.4 mph 28.8 mph N/A   Clear
2:53 PM 70.0 °F 53.1 °F 55% 29.78 in 10.0 mi SSW 16.1 mph 26.5 mph N/A   Clear
3:53 PM 68.0 °F 53.6 °F 60% 29.82 in 10.0 mi South 17.3 mph 25.3 mph N/A   Clear
4:53 PM 66.0 °F 53.1 °F 63% 29.81 in 9.0 mi SSW 13.8 mph 24.2 mph N/A   Clear
5:53 PM 64.9 °F 53.1 °F 65% 29.82 in 9.0 mi South 10.4 mph 24.2 mph N/A   Clear
6:53 PM 62.6 °F 53.6 °F 72% 29.87 in 10.0 mi South 11.5 mph - N/A   Clear
7:53 PM 62.1 °F 54.0 °F 75% 29.86 in 10.0 mi South 9.2 mph - N/A   Clear
8:53 PM 61.0 °F 54.0 °F 78% 29.89 in 10.0 mi SW 5.8 mph - N/A   Partly Cloudy
9:53 PM 62.1 °F 54.0 °F 75% 29.92 in 10.0 mi Calm Calm - N/A   Clear
10:53 PM 62.1 °F 54.0 °F 75% 29.93 in 9.0 mi South 4.6 mph - N/A   Clear
11:53 PM 61.0 °F 54.0 °F 78% 29.94 in 9.0 mi South 6.9 mph - N/A   Clear